GW2591 Weather Reports


time (UTC)temp
C
wind
direction
speed
KPH
gust
KPH
rain 1hr
cm
rain 24hr
cm
rain mn
cm
humidity
%
barometer
mb
20260503233515 11 233 14.5 43.5 0.00 0.00 0.00 56 1011.6
20260503233011 11 221 11.3 22.5 0.00 0.00 0.00 58 1011.9
20260503232509 11 219 12.9 25.7 0.00 0.00 0.00 56 1011.7
20260503232006 11 229 14.5 25.7 0.00 0.00 0.00 57 1011.8
20260503231504 11 225 17.7 30.6 0.00 0.00 0.00 57 1011.8
20260503231000 11 234 16.1 41.8 0.00 0.00 0.00 57 1011.9
20260503230457 11 209 35.4 37.0 0.00 0.00 0.00 57 1011.7
20260503225954 11 211 11.3 29.0 0.00 0.00 0.00 56 1011.7
20260503225451 12 222 17.7 40.2 0.00 0.00 0.00 56 1011.9
20260503224946 12 230 38.6 49.9 0.00 0.00 0.00 54 1011.7
20260503224444 12 238 30.6 54.7 0.00 0.00 0.00 55 1011.7
20260503223942 12 241 53.1 64.4 0.00 0.00 0.00 55 1011.8
20260503223439 12 250 33.8 57.9 0.00 0.00 0.00 55 1011.6
20260503222934 12 239 41.8 62.8 0.00 0.00 0.00 54 1011.5
20260503222433 13 245 41.8 48.3 0.00 0.00 0.00 50 1011.6
20260503221931 15 250 35.4 46.7 0.00 0.00 0.00 35 1011.4
20260503221429 15 221 25.7 32.2 0.00 0.00 0.00 34 1011.3
20260503220926 15 241 48.3 48.3 0.00 0.00 0.00 34 1011.4
20260503220422 15 249 30.6 33.8 0.00 0.00 0.00 33 1011.1
20260503215919 15 218 11.3 35.4 0.00 0.00 0.00 32 1011.4
20260503215416 15 250 14.5 30.6 0.00 0.00 0.00 33 1011.4
20260503214914 15 240 17.7 40.2 0.00 0.00 0.00 32 1011.2
20260503214411 15 252 29.0 54.7 0.00 0.00 0.00 33 1011.3
20260503213908 15 221 14.5 56.3 0.00 0.00 0.00 33 1011.4
20260503213406 15 215 27.4 51.5 0.00 0.00 0.00 32 1011.4
20260503212902 15 230 9.7 35.4 0.00 0.00 0.00 33 1011.4
20260503212400 15 221 32.2 37.0 0.00 0.00 0.00 32 1011.5
20260503211857 15 227 14.5 32.2 0.00 0.00 0.00 32 1011.5
20260503211354 15 239 11.3 35.4 0.00 0.00 0.00 32 1011.7
20260503210849 15 223 24.1 49.9 0.00 0.00 0.00 30 1011.6
20260503210347 15 212 24.1 40.2 0.00 0.00 0.00 31 1011.7
20260503205841 15 229 37.0 49.9 0.00 0.00 0.00 30 1011.8
20260503205339 15 232 30.6 49.9 0.00 0.00 0.00 31 1011.9
20260503204835 15 213 35.4 56.3 0.00 0.00 0.00 29 1011.7
20260503204332 15 219 32.2 43.5 0.00 0.00 0.00 30 1011.9
20260503203829 15 240 17.7 43.5 0.00 0.00 0.00 30 1011.9
20260503203327 15 236 35.4 56.3 0.00 0.00 0.00 33 1011.9
20260503202823 15 227 22.5 38.6 0.00 0.00 0.00 30 1012.1
20260503202322 15 224 22.5 32.2 0.00 0.00 0.00 32 1012.0
20260503201820 15 226 25.7 62.8 0.00 0.00 0.00 29 1012.0
20260503201316 15 233 17.7 35.4 0.00 0.00 0.00 34 1012.1
20260503200814 15 249 20.9 48.3 0.00 0.00 0.00 32 1012.2
20260503200309 15 259 14.5 48.3 0.00 0.00 0.00 31 1012.2
20260503195807 15 232 30.6 46.7 0.00 0.00 0.00 31 1012.3
20260503195304 15 217 19.3 53.1 0.00 0.00 0.00 31 1012.3
20260503194801 16 224 16.1 51.5 0.00 0.00 0.00 29 1012.3
20260503194256 15 244 22.5 49.9 0.00 0.00 0.00 32 1012.5
20260503193753 15 226 32.2 41.8 0.00 0.00 0.00 30 1012.4
20260503193249 15 238 32.2 49.9 0.00 0.00 0.00 33 1012.6
20260503192745 15 242 12.9 40.2 0.00 0.00 0.00 33 1012.6
20260503192240 15 211 41.8 41.8 0.00 0.00 0.00 30 1012.6
20260503191737 15 221 27.4 45.1 0.00 0.00 0.00 29 1012.7
20260503191234 15 221 20.9 45.1 0.00 0.00 0.00 30 1012.9
20260503190731 15 219 14.5 43.5 0.00 0.00 0.00 32 1012.7
20260503190228 15 196 17.7 45.1 0.00 0.00 0.00 32 1012.8
20260503185725 15 227 16.1 49.9 0.00 0.00 0.00 31 1013.0
20260503185221 15 233 30.6 41.8 0.00 0.00 0.00 32 1013.0
20260503184715 15 230 22.5 30.6 0.00 0.00 0.00 28 1013.0
20260503184212 15 256 12.9 43.5 0.00 0.00 0.00 31 1013.2
20260503183708 15 231 14.5 45.1 0.00 0.00 0.00 31 1013.1
20260503183206 15 245 20.9 35.4 0.00 0.00 0.00 35 1013.2
20260503182704 15 235 14.5 35.4 0.00 0.00 0.00 31 1013.5
20260503182202 15 212 27.4 48.3 0.00 0.00 0.00 28 1013.3
20260503181658 15 212 35.4 41.8 0.00 0.00 0.00 30 1013.5
20260503181155 15 237 33.8 35.4 0.00 0.00 0.00 31 1013.6
20260503180652 15 228 22.5 43.5 0.00 0.00 0.00 30 1013.6
20260503180150 15 226 24.1 49.9 0.00 0.00 0.00 31 1013.5
20260503175647 15 237 19.3 48.3 0.00 0.00 0.00 29 1013.6
20260503175144 15 223 19.3 49.9 0.00 0.00 0.00 30 1013.8
20260503174640 15 235 11.3 59.5 0.00 0.00 0.00 30 1013.8
20260503174138 15 216 24.1 51.5 0.00 0.00 0.00 29 1013.9
20260503173632 15 246 25.7 35.4 0.00 0.00 0.00 32 1013.8
20260503173130 15 228 29.0 43.5 0.00 0.00 0.00 31 1014.1
20260503172627 15 225 37.0 49.9 0.00 0.00 0.00 32 1013.8
20260503172124 15 233 16.1 51.5 0.00 0.00 0.00 38 1013.9
20260503171620 15 264 24.1 48.3 0.00 0.00 0.00 35 1014.2
20260503171117 14 265 29.0 40.2 0.00 0.00 0.00 34 1014.1
20260503170615 15 223 11.3 48.3 0.00 0.00 0.00 33 1014.3
20260503170111 15 262 29.0 43.5 0.00 0.00 0.00 34 1014.4
20260503151006 12 254 9.7 41.8 0.00 0.00 0.00 44 1015.5
20260503150503 12 245 32.2 35.4 0.00 0.00 0.00 44 1015.3
20260503131356 8 233 27.4 48.3 0.00 0.00 0.00 49 1015.7
20260503130853 8 235 20.9 33.8 0.00 0.00 0.00 53 1015.7
20260503130350 8 231 11.3 32.2 0.00 0.00 0.00 50 1015.7
20260503110738 2 202 9.7 12.9 0.00 0.00 0.00 67 1015.7
20260503110235 2 198 4.8 9.7 0.00 0.00 0.00 67 1015.6
20260503100201 2 204 12.9 12.9 0.00 0.00 0.00 67 1015.4
20260503090121 2 188 6.4 11.3 0.00 0.00 0.00 69 1015.5
20260503081556 2 182 3.2 8.0 0.00 0.00 0.00 68 1015.7
20260503081054 2 199 4.8 9.7 0.00 0.00 0.00 68 1015.8
20260503080549 2 174 3.2 6.4 0.00 0.00 0.00 68 1015.9
20260503072523 2 189 6.4 8.0 0.00 0.00 0.00 69 1015.7
20260503072020 2 198 4.8 8.0 0.00 0.00 0.00 67 1016.0
20260503071517 2 185 4.8 8.0 0.00 0.00 0.00 68 1016.0
20260503071014 2 190 6.4 8.0 0.00 0.00 0.00 68 1015.9
20260503070511 2 194 6.4 9.7 0.00 0.00 0.00 68 1016.0
20260503054923 3 185 4.8 8.0 0.00 0.00 0.00 66 1016.3
20260503054419 3 182 3.2 8.0 0.00 0.00 0.00 66 1016.1
20260503053917 3 158 1.6 6.4 0.00 0.00 0.00 66 1016.2
20260503053415 3 198 4.8 8.0 0.00 0.00 0.00 65 1016.1
20260503052911 3 192 6.4 8.0 0.00 0.00 0.00 65 1016.2
20260503052408 3 198 4.8 11.3 0.00 0.00 0.00 64 1016.3
20260503051904 3 188 4.8 11.3 0.00 0.00 0.00 65 1016.3
20260503051400 3 190 8.0 9.7 0.00 0.00 0.00 64 1016.1
20260503050857 3 195 4.8 8.0 0.00 0.00 0.00 64 1016.1
20260503050353 3 185 4.8 8.0 0.00 0.00 0.00 64 1016.5
20260503045851 3 196 4.8 6.4 0.00 0.00 0.00 64 1016.3
20260503045349 3 187 4.8 8.0 0.00 0.00 0.00 64 1016.4
20260503044845 3 206 6.4 8.0 0.00 0.00 0.00 64 1016.4
20260503044342 3 187 4.8 8.0 0.00 0.00 0.00 64 1016.2
20260503043839 3 198 4.8 8.0 0.00 0.00 0.00 64 1016.3
20260503043336 3 191 4.8 9.7 0.00 0.00 0.00 64 1016.2
20260503042833 4 186 4.8 9.7 0.00 0.00 0.00 63 1016.2
20260503042329 4 181 6.4 9.7 0.00 0.00 0.00 63 1016.3
20260503041825 4 189 6.4 9.7 0.00 0.00 0.00 63 1016.3
20260503041322 4 183 4.8 9.7 0.00 0.00 0.00 63 1016.1
20260503040820 4 186 8.0 9.7 0.00 0.00 0.00 63 1016.3
20260503040317 4 184 4.8 8.0 0.00 0.00 0.00 64 1016.2
20260503035814 4 170 4.8 8.0 0.00 0.00 0.00 64 1016.5
20260503035311 5 181 4.8 9.7 0.00 0.00 0.00 63 1016.3
20260503034808 5 190 6.4 8.0 0.00 0.00 0.00 64 1016.4
20260503034305 5 183 4.8 9.7 0.00 0.00 0.00 64 1016.2
20260503033803 5 202 4.8 8.0 0.00 0.00 0.00 64 1016.2
20260503033300 5 183 4.8 8.0 0.00 0.00 0.00 64 1016.4
20260503032758 5 182 4.8 8.0 0.00 0.00 0.00 63 1016.3
20260503032257 5 191 4.8 8.0 0.00 0.00 0.00 63 1016.4
20260503031753 5 189 4.8 8.0 0.00 0.00 0.00 63 1016.3
20260503031252 5 186 6.4 8.0 0.00 0.00 0.00 64 1016.4
20260503030747 5 197 6.4 11.3 0.00 0.00 0.00 63 1016.3
20260503030244 5 174 4.8 9.7 0.00 0.00 0.00 62 1016.6
20260503025741 5 180 3.2 6.4 0.00 0.00 0.00 60 1016.4
20260503025238 5 170 6.4 8.0 0.00 0.00 0.00 60 1016.5
20260503024735 5 174 4.8 8.0 0.00 0.00 0.00 58 1016.5
20260503024232 5 180 4.8 8.0 0.00 0.00 0.00 58 1016.5
20260503023729 5 162 3.2 6.4 0.00 0.00 0.00 59 1016.5
20260503023226 5 190 4.8 8.0 0.00 0.00 0.00 59 1016.5
20260503022722 5 130 3.2 6.4 0.00 0.00 0.00 58 1016.5
20260503022222 6 180 4.8 6.4 0.00 0.00 0.00 57 1016.6
20260503021720 6 169 3.2 8.0 0.00 0.00 0.00 56 1016.6
20260503021215 6 174 3.2 6.4 0.00 0.00 0.00 56 1016.5
20260503020713 6 180 3.2 6.4 0.00 0.00 0.00 56 1016.4
20260503020211 6 176 4.8 8.0 0.00 0.00 0.00 56 1016.4
20260503015707 6 177 3.2 8.0 0.00 0.00 0.00 57 1016.6
20260503015204 5 158 3.2 4.8 0.00 0.00 0.00 60 1016.5
20260503014700 6 89 0.0 3.2 0.00 0.00 0.00 60 1016.3
20260503014158 6 141 0.0 4.8 0.00 0.00 0.00 57 1016.5
20260503013655 6 107 1.6 6.4 0.00 0.00 0.00 57 1016.4
20260503013153 6 164 1.6 4.8 0.00 0.00 0.00 54 1016.3
20260503012650 6 165 3.2 4.8 0.00 0.00 0.00 53 1016.3
20260503012147 6 170 1.6 4.8 0.00 0.00 0.00 52 1016.4
20260503011643 6 173 3.2 4.8 0.00 0.00 0.00 55 1016.5
20260503011140 6 154 4.8 4.8 0.00 0.00 0.00 55 1016.4
20260503010636 6 168 3.2 4.8 0.00 0.00 0.00 54 1016.4
20260503010134 6 179 3.2 4.8 0.00 0.00 0.00 56 1016.3
20260503005631 6 174 3.2 4.8 0.00 0.00 0.00 57 1016.3
20260503005128 6 175 1.6 4.8 0.00 0.00 0.00 55 1016.3
20260503004624 6 170 1.6 4.8 0.00 0.00 0.00 55 1016.4
20260503004123 7 223 0.0 3.2 0.00 0.00 0.00 55 1016.2
20260503003619 7 191 1.6 3.2 0.00 0.00 0.00 53 1016.4
20260503003116 7 281 1.6 3.2 0.00 0.00 0.00 50 1016.1
20260503002613 7 253 3.2 4.8 0.00 0.00 0.00 52 1016.1
20260503002110 7 274 3.2 4.8 0.00 0.00 0.00 55 1016.2
20260503001606 7 277 4.8 8.0 0.00 0.00 0.00 49 1016.2
20260503001103 7 10 0.0 4.8 0.00 0.00 0.00 44 1016.1
20260503000601 7 345 4.8 4.8 0.00 0.00 0.00 43 1016.2
20260503000058 7 337 4.8 6.4 0.00 0.00 0.00 46 1016.1
20260502235554 7 321 3.2 8.0 0.00 0.00 0.00 46 1016.2
20260502235052 7 286 3.2 8.0 0.00 0.00 0.00 45 1016.2
20260502234548 7 29 0.0 8.0 0.00 0.00 0.00 46 1016.1
20260502234046 7 272 1.6 8.0 0.00 0.00 0.00 47 1016.1